This demonstration page uses our WeatherBlox Daily Observations layout. Learn more.

Left ArrowRight Arrow

34.02893, -84.19858

Hourly Observations for April 10, 2022

Temp ( °F °C ) Dew Point ( °F °C ) Humidity (%) Winds ( mph kmh ) Pressure ( in mb ) Visibility ( mi km ) Precip ( " mm )
12:53 am 00:53 Clear 36 2.2 32 0 86 86 Calm 30.06 1018 10 16 0.00 0.00
1:53 am 01:53 Clear 38 3.3 32 0 79 79 Calm 30.07 1018 10 16 0.00 0.00
2:53 am 02:53 Clear 35 1.7 32 0 89 89 Calm 30.07 1018 10 16 0.00 0.00
3:53 am 03:53 Clear 34 1.1 32 0 92 92 Calm 30.08 1019 10 16 0.00 0.00
4:53 am 04:53 Clear 33 0.6 32 0 96 96 Calm 30.09 1019 9 14 0.00 0.00
5:53 am 05:53 Clear 33 0.6 31 -0.6 92 92 Calm 30.10 1019 10 16 0.00 0.00
6:53 am 06:53 Clear 32 0 31 -0.6 96 96 Calm 30.11 1020 10 16 0.00 0.00
7:53 am 07:53 Sunny 34 1.1 32 0 92 92 Calm 30.14 1021 10 16 0.00 0.00
8:53 am 08:53 Sunny 43 6.1 38 3.3 82 82 Calm 30.15 1021 10 16 0.00 0.00
9:53 am 09:53 Sunny 50 10 34 1.1 54 54 Calm 30.17 1022 10 16 0.00 0.00
10:53 am 10:53 Sunny 57 13.9 32 0 39 39 VRB 3 6 30.16 1022 10 16 0.00 0.00
11:53 am 11:53 Sunny 61 16.1 30 -1.1 31 31 WSW 7 11 30.16 1021 10 16 0.00 0.00
12:53 pm 12:53 Sunny 65 18.3 31 -0.6 28 28 undefined N/A 30.14 1021 10 16 0.00 0.00
1:53 pm 13:53 Sunny 67 19.4 29 -1.7 24 24 W 9 15 30.12 1020 10 16 0.00 0.00
2:53 pm 14:53 Sunny 69 20.6 32 0 25 25 SW 8 13 30.09 1019 10 16 0.00 0.00
3:53 pm 15:53 Sunny 71 21.7 35 1.7 27 27 SSW 6 9 30.06 1018 10 16 0.00 0.00
4:53 pm 16:53 Sunny 71 21.7 34 1.1 26 26 SSW 6 9 30.04 1017 10 16 0.00 0.00
5:53 pm 17:53 Sunny 71 21.7 36 2.2 28 28 S 6 9 30.03 1017 10 16 0.00 0.00
6:53 pm 18:53 Sunny 70 21.1 37 2.8 30 30 S 8 13 30.03 1017 10 16 0.00 0.00
7:53 pm 19:53 Sunny 67 19.4 36 2.2 32 32 S 7 11 30.04 1017 10 16 0.00 0.00
8:53 pm 20:53 Clear 61 16.1 37 2.8 41 41 SE 3 6 30.05 1018 10 16 0.00 0.00
9:53 pm 21:53 Clear 58 14.4 38 3.3 48 48 Calm 30.07 1018 10 16 0.00 0.00
10:53 pm 22:53 Clear 59 15 38 3.3 46 46 S 5 7 30.07 1018 10 16 0.00 0.00
11:53 pm 23:53 Clear 58 14.4 37 2.8 46 46 S 3 6 30.06 1018 10 16 0.00 0.00

Powered by AerisWeather